Location: Mainz-Finthen
(49.9906°N, 8.1713°E)
Time: 01:01:01
(UTC+00:00)

BlueWalker 3 - Pass Details

Date: 28 November 2022
Orbit: 499 x 517 km, 53.2° (Epoch: 26 January)

Event Time Altitude Azimuth Distance (km) Brightness Sun altitude
Rises 17:01:14 0° 248° (WSW) 2,628 7.5 -14.0°
Reaches altitude 10° 17:03:27 10° 249° (WSW) 1,740 6.1 -14.4°
Maximum altitude 17:07:23 86° 338° (NNW) 519 1.9 -15.0°
Enters shadow 17:09:17 29° 66° (ENE) 952 2.7 -15.3°
